Time,TemperatureF,DewpointF,PressureIn,WindDirection,WindDirectionDegrees,WindSpeedMPH,WindSpeedGustMPH,Humidity,HourlyPrecipIn,Conditions,Clouds,dailyrainin,SolarRadiationWatts/m^2,SoftwareType,DateUTC
2013-10-12 00:02:00,52.5,44.8,29.69,WSW,244,0.0,8.0,75,0.00,,,0.25,0.0,meteohub,2013-10-12 05:02:00,
2013-10-12 00:07:00,52.5,45.1,29.69,WSW,251,3.0,8.0,76,0.00,,,0.00,0.0,meteohub,2013-10-12 05:07:00,
2013-10-12 00:12:00,52.5,44.4,29.69,West,266,6.0,9.0,74,0.00,,,0.00,0.0,meteohub,2013-10-12 05:12:00,
2013-10-12 00:18:00,52.5,44.8,29.69,WNW,286,2.0,9.0,75,0.00,,,0.00,0.0,meteohub,2013-10-12 05:18:00,
2013-10-12 00:22:00,52.7,45.0,29.69,West,274,1.0,9.0,75,0.00,,,0.00,0.0,meteohub,2013-10-12 05:22:00,
2013-10-12 00:28:00,52.7,45.0,29.69,West,259,3.0,9.0,75,0.00,,,0.00,0.0,meteohub,2013-10-12 05:28:00,
2013-10-12 00:33:00,52.7,45.0,29.69,WSW,250,2.0,7.0,75,0.00,,,0.00,0.0,meteohub,2013-10-12 05:33:00,
2013-10-12 00:38:00,52.7,45.0,29.69,West,266,3.0,6.0,75,0.00,,,0.00,0.0,meteohub,2013-10-12 05:38:00,
2013-10-12 00:43:00,52.7,45.3,29.69,WSW,257,3.0,6.0,76,0.00,,,0.00,0.0,meteohub,2013-10-12 05:43:00,
2013-10-12 00:48:00,52.7,45.0,29.70,West,266,5.0,6.0,75,0.00,,,0.00,0.0,meteohub,2013-10-12 05:48:00,
2013-10-12 00:53:00,52.5,44.4,29.70,WSW,256,2.0,6.0,74,0.00,,,0.00,0.0,meteohub,2013-10-12 05:53:00,
2013-10-12 00:58:00,52.7,45.0,29.70,WSW,248,3.0,6.0,75,0.00,,,0.00,0.0,meteohub,2013-10-12 05:58:00,
2013-10-12 01:03:00,52.7,45.0,29.70,WSW,253,2.0,6.0,75,0.00,,,0.00,0.0,meteohub,2013-10-12 06:03:00,
2013-10-12 01:08:00,52.7,45.0,29.70,WSW,257,2.0,6.0,75,0.00,,,0.00,0.0,meteohub,2013-10-12 06:08:00,
2013-10-12 01:13:00,52.7,45.3,29.70,West,277,2.0,7.0,76,0.00,,,0.00,0.0,meteohub,2013-10-12 06:13:00,
2013-10-12 01:18:00,52.7,45.0,29.71,West,263,3.0,7.0,75,0.00,,,0.00,0.0,meteohub,2013-10-12 06:18:00,
2013-10-12 01:23:00,52.5,44.8,29.71,West,275,4.0,7.0,75,0.00,,,0.00,0.0,meteohub,2013-10-12 06:23:00,
2013-10-12 01:28:00,52.7,45.3,29.71,SW,233,4.0,6.0,76,0.00,,,0.00,0.0,meteohub,2013-10-12 06:28:00,
2013-10-12 01:33:00,52.7,45.3,29.72,WSW,252,2.0,6.0,76,0.00,,,0.00,0.0,meteohub,2013-10-12 06:33:00,
2013-10-12 01:38:00,52.7,45.3,29.71,WSW,243,1.0,6.0,76,0.00,,,0.00,0.0,meteohub,2013-10-12 06:38:00,
2013-10-12 01:43:00,52.7,45.3,29.71,West,269,3.0,6.0,76,0.00,,,0.00,0.0,meteohub,2013-10-12 06:43:00,
2013-10-12 01:48:00,52.7,45.3,29.72,WSW,252,2.0,6.0,76,0.00,,,0.00,0.0,meteohub,2013-10-12 06:48:00,
2013-10-12 01:53:00,52.5,44.8,29.72,West,277,2.0,6.0,75,0.00,,,0.00,0.0,meteohub,2013-10-12 06:53:00,
2013-10-12 01:58:00,52.5,44.8,29.72,WSW,250,3.0,5.0,75,0.00,,,0.00,0.0,meteohub,2013-10-12 06:58:00,
2013-10-12 02:03:00,52.5,45.1,29.72,West,268,4.0,5.0,76,0.00,,,0.00,0.0,meteohub,2013-10-12 07:03:00,
2013-10-12 02:08:00,52.5,44.8,29.72,West,270,5.0,5.0,75,0.00,,,0.00,0.0,meteohub,2013-10-12 07:08:00,
2013-10-12 02:13:00,52.7,44.6,29.72,West,269,4.0,8.0,74,0.00,,,0.00,0.0,meteohub,2013-10-12 07:13:00,
2013-10-12 02:18:00,52.9,44.8,29.73,WSW,237,3.0,8.0,74,0.00,,,0.00,0.0,meteohub,2013-10-12 07:18:00,
2013-10-12 02:23:00,52.9,44.8,29.73,West,278,5.0,8.0,74,0.00,,,0.00,0.0,meteohub,2013-10-12 07:23:00,
2013-10-12 02:28:00,52.9,44.8,29.73,West,261,3.0,8.0,74,0.00,,,0.00,0.0,meteohub,2013-10-12 07:28:00,
2013-10-12 02:33:00,52.9,44.8,29.73,West,260,4.0,8.0,74,0.00,,,0.00,0.0,meteohub,2013-10-12 07:33:00,
2013-10-12 02:38:00,52.9,45.1,29.73,WSW,257,5.0,7.0,75,0.00,,,0.00,0.0,meteohub,2013-10-12 07:38:00,
2013-10-12 02:43:00,52.7,45.0,29.74,West,271,4.0,7.0,75,0.00,,,0.00,0.0,meteohub,2013-10-12 07:43:00,
2013-10-12 02:48:00,52.7,44.6,29.74,West,260,4.0,7.0,74,0.00,,,0.00,0.0,meteohub,2013-10-12 07:48:00,
2013-10-12 02:53:00,52.7,45.0,29.74,West,263,3.0,7.0,75,0.00,,,0.00,0.0,meteohub,2013-10-12 07:53:00,
2013-10-12 02:58:00,52.7,44.6,29.74,WSW,254,6.0,7.0,74,0.00,,,0.00,0.0,meteohub,2013-10-12 07:58:00,
2013-10-12 03:04:00,52.5,44.4,29.74,West,259,5.0,7.0,74,0.00,,,0.00,0.0,meteohub,2013-10-12 08:04:00,
2013-10-12 03:09:00,52.5,44.1,29.74,West,260,6.0,8.0,73,0.00,,,0.00,0.0,meteohub,2013-10-12 08:09:00,
2013-10-12 03:14:00,52.5,44.1,29.74,WSW,244,2.0,11.0,73,0.00,,,0.00,0.0,meteohub,2013-10-12 08:14:00,
2013-10-12 03:19:00,52.5,44.1,29.74,West,261,5.0,11.0,73,0.00,,,0.00,0.0,meteohub,2013-10-12 08:19:00,
2013-10-12 03:24:00,52.5,43.7,29.74,SSE,159,4.0,11.0,72,0.00,,,0.00,0.0,meteohub,2013-10-12 08:24:00,
2013-10-12 03:29:00,52.5,43.7,29.74,WSW,252,4.0,9.0,72,0.00,,,0.00,0.0,meteohub,2013-10-12 08:29:00,
2013-10-12 03:34:00,52.3,43.9,29.74,West,261,4.0,9.0,73,0.00,,,0.00,0.0,meteohub,2013-10-12 08:34:00,
2013-10-12 03:39:00,52.2,43.7,29.75,West,260,4.0,8.0,73,0.00,,,0.00,0.0,meteohub,2013-10-12 08:39:00,
2013-10-12 03:44:00,52.0,43.9,29.75,West,261,2.0,6.0,74,0.00,,,0.00,0.0,meteohub,2013-10-12 08:44:00,
2013-10-12 03:49:00,51.8,43.7,29.75,West,272,2.0,6.0,74,0.00,,,0.00,0.0,meteohub,2013-10-12 08:49:00,
2013-10-12 03:54:00,51.6,43.5,29.75,West,276,2.0,5.0,74,0.00,,,0.00,0.0,meteohub,2013-10-12 08:54:00,
2013-10-12 03:59:00,51.6,44.2,29.75,WSW,255,5.0,6.0,76,0.00,,,0.00,0.0,meteohub,2013-10-12 08:59:00,
2013-10-12 04:04:00,51.4,43.7,29.75,West,275,5.0,6.0,75,0.00,,,0.00,0.0,meteohub,2013-10-12 09:04:00,
2013-10-12 04:09:00,51.6,43.5,29.76,WSW,250,5.0,7.0,74,0.00,,,0.00,0.0,meteohub,2013-10-12 09:09:00,
2013-10-12 04:14:00,51.6,43.5,29.76,West,265,6.0,8.0,74,0.00,,,0.00,0.0,meteohub,2013-10-12 09:14:00,
2013-10-12 04:19:00,51.8,43.7,29.76,West,263,3.0,8.0,74,0.00,,,0.00,0.0,meteohub,2013-10-12 09:19:00,
2013-10-12 04:24:00,51.8,43.7,29.76,WSW,250,3.0,8.0,74,0.00,,,0.00,0.0,meteohub,2013-10-12 09:24:00,
2013-10-12 04:29:00,51.8,43.3,29.77,WSW,252,5.0,6.0,73,0.00,,,0.00,0.0,meteohub,2013-10-12 09:29:00,
2013-10-12 04:34:00,51.8,43.7,29.77,West,261,6.0,8.0,74,0.00,,,0.00,0.0,meteohub,2013-10-12 09:34:00,
2013-10-12 04:39:00,51.8,43.3,29.77,WSW,249,4.0,8.0,73,0.00,,,0.00,0.0,meteohub,2013-10-12 09:39:00,
2013-10-12 04:44:00,51.8,43.7,29.77,West,273,5.0,8.0,74,0.00,,,0.00,0.0,meteohub,2013-10-12 09:44:00,
2013-10-12 04:49:00,51.8,43.3,29.77,West,269,4.0,8.0,73,0.00,,,0.00,0.0,meteohub,2013-10-12 09:49:00,
2013-10-12 04:54:00,51.6,43.3,29.77,West,275,3.0,8.0,73,0.00,,,0.00,0.0,meteohub,2013-10-12 09:54:00,
2013-10-12 04:59:00,51.6,43.3,29.77,West,264,3.0,7.0,73,0.00,,,0.00,0.0,meteohub,2013-10-12 09:59:00,
2013-10-12 05:04:00,51.6,43.3,29.77,SSW,212,3.0,8.0,73,0.00,,,0.00,0.0,meteohub,2013-10-12 10:04:00,
2013-10-12 05:10:00,51.6,43.5,29.77,WSW,253,6.0,8.0,74,0.00,,,0.00,0.0,meteohub,2013-10-12 10:10:00,
2013-10-12 05:15:00,51.4,43.2,29.77,WSW,257,4.0,8.0,73,0.00,,,0.00,0.0,meteohub,2013-10-12 10:15:00,
2013-10-12 05:20:00,51.4,43.2,29.77,West,263,5.0,8.0,73,0.00,,,0.00,0.0,meteohub,2013-10-12 10:20:00,
2013-10-12 05:25:00,51.4,43.2,29.77,WSW,253,3.0,7.0,73,0.00,,,0.00,0.0,meteohub,2013-10-12 10:25:00,
2013-10-12 05:30:00,51.4,43.5,29.78,WSW,248,3.0,7.0,74,0.00,,,0.00,0.0,meteohub,2013-10-12 10:30:00,
2013-10-12 05:35:00,51.4,43.5,29.78,West,267,4.0,7.0,74,0.00,,,0.00,0.0,meteohub,2013-10-12 10:35:00,
2013-10-12 05:40:00,51.3,43.3,29.78,WSW,243,2.0,7.0,74,0.00,,,0.00,0.0,meteohub,2013-10-12 10:40:00,
2013-10-12 05:45:00,51.3,43.3,29.78,WSW,247,6.0,7.0,74,0.00,,,0.00,0.0,meteohub,2013-10-12 10:45:00,
2013-10-12 05:50:00,51.3,43.0,29.79,West,267,4.0,7.0,73,0.00,,,0.00,0.0,meteohub,2013-10-12 10:50:00,
2013-10-12 05:55:00,51.3,43.0,29.79,WSW,248,4.0,7.0,73,0.00,,,0.00,0.0,meteohub,2013-10-12 10:55:00,
2013-10-12 06:00:00,51.1,43.2,29.79,WSW,254,6.0,7.0,74,0.00,,,0.00,0.0,meteohub,2013-10-12 11:00:00,
2013-10-12 06:05:00,51.1,42.8,29.80,West,266,4.0,8.0,73,0.00,,,0.00,0.0,meteohub,2013-10-12 11:05:00,
2013-10-12 06:10:00,51.1,43.2,29.80,WSW,250,6.0,8.0,74,0.00,,,0.00,0.0,meteohub,2013-10-12 11:10:00,
2013-10-12 06:15:00,51.1,42.8,29.80,West,265,7.0,8.0,73,0.00,,,0.00,0.0,meteohub,2013-10-12 11:15:00,
2013-10-12 06:20:00,51.1,42.8,29.81,West,263,5.0,11.0,73,0.00,,,0.00,0.0,meteohub,2013-10-12 11:20:00,
2013-10-12 06:25:00,51.1,42.8,29.81,West,266,5.0,11.0,73,0.00,,,0.00,0.0,meteohub,2013-10-12 11:25:00,
2013-10-12 06:30:00,51.1,43.2,29.80,West,272,5.0,8.0,74,0.00,,,0.00,0.0,meteohub,2013-10-12 11:30:00,
2013-10-12 06:35:00,51.1,42.8,29.81,WSW,256,5.0,8.0,73,0.00,,,0.00,0.0,meteohub,2013-10-12 11:35:00,
2013-10-12 06:40:00,51.1,42.8,29.81,West,261,3.0,7.0,73,0.00,,,0.00,0.0,meteohub,2013-10-12 11:40:00,
2013-10-12 06:45:00,51.1,43.2,29.81,West,266,6.0,7.0,74,0.00,,,0.00,0.0,meteohub,2013-10-12 11:45:00,
2013-10-12 06:50:00,51.1,42.8,29.81,WSW,244,5.0,7.0,73,0.00,,,0.00,0.0,meteohub,2013-10-12 11:50:00,
2013-10-12 06:55:00,51.1,42.8,29.81,SW,232,4.0,9.0,73,0.00,,,0.00,0.0,meteohub,2013-10-12 11:55:00,
2013-10-12 07:00:00,50.9,42.6,29.81,West,275,5.0,9.0,73,0.00,,,0.00,0.0,meteohub,2013-10-12 12:00:00,
2013-10-12 07:05:00,50.9,42.6,29.81,SW,231,3.0,9.0,73,0.00,,,0.00,0.0,meteohub,2013-10-12 12:05:00,
2013-10-12 07:10:00,50.9,43.0,29.81,West,265,5.0,9.0,74,0.00,,,0.00,0.0,meteohub,2013-10-12 12:10:00,
2013-10-12 07:15:00,50.9,42.6,29.81,West,263,5.0,9.0,73,0.00,,,0.00,0.0,meteohub,2013-10-12 12:15:00,
2013-10-12 07:20:00,50.9,42.6,29.82,WSW,247,3.0,8.0,73,0.00,,,0.00,0.0,meteohub,2013-10-12 12:20:00,
2013-10-12 07:25:00,50.9,42.6,29.82,WSW,246,4.0,8.0,73,0.00,,,0.00,0.0,meteohub,2013-10-12 12:25:00,
2013-10-12 07:30:00,50.9,43.0,29.82,West,265,7.0,8.0,74,0.00,,,0.00,0.0,meteohub,2013-10-12 12:30:00,
2013-10-12 07:35:00,50.9,42.6,29.82,WSW,257,5.0,9.0,73,0.00,,,0.00,0.0,meteohub,2013-10-12 12:35:00,
2013-10-12 07:40:00,50.9,42.6,29.82,WSW,247,9.0,9.0,73,0.00,,,0.00,0.0,meteohub,2013-10-12 12:40:00,
2013-10-12 07:45:00,50.7,42.4,29.82,West,267,6.0,10.0,73,0.00,,,0.00,7.0,meteohub,2013-10-12 12:45:00,
2013-10-12 07:51:00,50.7,42.4,29.83,WSW,254,8.0,10.0,73,0.00,,,0.00,9.0,meteohub,2013-10-12 12:51:00,
2013-10-12 07:56:00,50.7,42.8,29.83,West,263,5.0,10.0,74,0.00,,,0.00,7.0,meteohub,2013-10-12 12:56:00,
2013-10-12 08:01:00,50.5,42.6,29.83,WSW,244,5.0,10.0,74,0.00,,,0.00,12.0,meteohub,2013-10-12 13:01:00,
2013-10-12 08:06:00,50.5,42.6,29.84,West,263,7.0,10.0,74,0.00,,,0.00,11.0,meteohub,2013-10-12 13:06:00,
2013-10-12 08:11:00,50.5,42.6,29.84,WSW,246,6.0,12.0,74,0.00,,,0.00,11.0,meteohub,2013-10-12 13:11:00,
2013-10-12 08:16:00,50.4,42.4,29.84,West,272,6.0,12.0,74,0.00,,,0.00,19.0,meteohub,2013-10-12 13:16:00,
2013-10-12 08:21:00,50.4,42.4,29.84,WSW,249,5.0,12.0,74,0.00,,,0.00,25.0,meteohub,2013-10-12 13:21:00,
2013-10-12 08:26:00,50.4,42.4,29.85,WSW,258,5.0,8.0,74,0.00,,,0.00,30.0,meteohub,2013-10-12 13:26:00,
2013-10-12 08:31:00,50.4,42.4,29.85,WSW,243,3.0,8.0,74,0.00,,,0.00,30.0,meteohub,2013-10-12 13:31:00,
2013-10-12 08:36:00,50.4,42.4,29.85,West,270,4.0,8.0,74,0.00,,,0.00,19.0,meteohub,2013-10-12 13:36:00,
2013-10-12 08:41:00,50.4,42.4,29.85,West,273,3.0,8.0,74,0.00,,,0.00,60.0,meteohub,2013-10-12 13:41:00,
2013-10-12 08:46:00,50.4,42.4,29.85,WSW,254,5.0,7.0,74,0.00,,,0.00,51.0,meteohub,2013-10-12 13:46:00,
2013-10-12 08:51:00,50.5,42.6,29.86,West,265,6.0,10.0,74,0.00,,,0.00,46.0,meteohub,2013-10-12 13:51:00,
2013-10-12 08:56:00,50.5,43.0,29.86,WSW,253,5.0,10.0,75,0.00,,,0.00,35.0,meteohub,2013-10-12 13:56:00,
2013-10-12 09:01:00,50.5,42.6,29.86,SSW,209,6.0,10.0,74,0.00,,,0.00,37.0,meteohub,2013-10-12 14:01:00,
2013-10-12 09:06:00,50.5,42.3,29.86,WNW,294,8.0,14.0,73,0.00,,,0.00,30.0,meteohub,2013-10-12 14:06:00,
2013-10-12 09:11:00,50.5,42.3,29.86,WSW,244,6.0,14.0,73,0.00,,,0.00,53.0,meteohub,2013-10-12 14:11:00,
2013-10-12 09:16:00,50.5,42.3,29.87,WSW,254,7.0,14.0,73,0.00,,,0.00,69.0,meteohub,2013-10-12 14:16:00,
2013-10-12 09:21:00,50.5,42.3,29.87,WSW,242,5.0,13.0,73,0.00,,,0.00,63.0,meteohub,2013-10-12 14:21:00,
2013-10-12 09:26:00,50.5,42.3,29.87,WSW,254,7.0,11.0,73,0.00,,,0.00,67.0,meteohub,2013-10-12 14:26:00,
2013-10-12 09:31:00,50.5,42.6,29.87,West,268,6.0,12.0,74,0.00,,,0.00,51.0,meteohub,2013-10-12 14:31:00,
2013-10-12 09:36:00,50.4,42.1,29.87,West,263,8.0,13.0,73,0.00,,,0.00,83.0,meteohub,2013-10-12 14:36:00,
2013-10-12 09:41:00,50.4,42.4,29.87,West,265,8.0,13.0,74,0.00,,,0.00,127.0,meteohub,2013-10-12 14:41:00,
2013-10-12 09:46:00,50.4,42.4,29.88,West,259,9.0,11.0,74,0.00,,,0.00,116.0,meteohub,2013-10-12 14:46:00,
2013-10-12 09:51:00,50.5,42.6,29.88,WSW,237,6.0,11.0,74,0.00,,,0.00,91.0,meteohub,2013-10-12 14:51:00,
2013-10-12 09:56:00,50.5,42.3,29.88,West,271,5.0,15.0,73,0.00,,,0.00,100.0,meteohub,2013-10-12 14:56:00,
2013-10-12 10:02:00,50.5,42.6,29.88,WSW,248,6.0,15.0,74,0.00,,,0.00,123.0,meteohub,2013-10-12 15:02:00,
2013-10-12 10:07:00,50.5,42.6,29.88,SW,233,5.0,15.0,74,0.00,,,0.00,77.0,meteohub,2013-10-12 15:07:00,
2013-10-12 10:12:00,50.5,42.3,29.89,West,276,6.0,10.0,73,0.00,,,0.00,97.0,meteohub,2013-10-12 15:12:00,
2013-10-12 10:17:00,50.5,42.6,29.89,WSW,246,4.0,10.0,74,0.00,,,0.00,113.0,meteohub,2013-10-12 15:17:00,
2013-10-12 10:22:00,50.5,42.3,29.90,WSW,258,10.0,11.0,73,0.00,,,0.00,90.0,meteohub,2013-10-12 15:22:00,
2013-10-12 10:27:00,50.5,41.9,29.90,West,266,7.0,11.0,72,0.00,,,0.00,91.0,meteohub,2013-10-12 15:27:00,
2013-10-12 10:32:00,50.4,42.1,29.90,West,263,6.0,11.0,73,0.00,,,0.00,72.0,meteohub,2013-10-12 15:32:00,
2013-10-12 10:37:00,50.4,42.1,29.91,WSW,253,8.0,11.0,73,0.00,,,0.00,77.0,meteohub,2013-10-12 15:37:00,
2013-10-12 10:42:00,50.4,42.8,29.91,West,259,5.0,13.0,75,0.00,,,0.00,90.0,meteohub,2013-10-12 15:42:00,
2013-10-12 10:47:00,50.2,42.3,29.91,SW,232,5.0,13.0,74,0.00,,,0.00,63.0,meteohub,2013-10-12 15:47:00,
2013-10-12 10:52:00,50.2,41.9,29.92,West,261,7.0,13.0,73,0.00,,,0.00,54.0,meteohub,2013-10-12 15:52:00,
2013-10-12 10:57:00,50.2,41.9,29.91,West,261,7.0,10.0,73,0.00,,,0.00,60.0,meteohub,2013-10-12 15:57:00,
2013-10-12 11:02:00,50.0,41.7,29.92,WSW,252,6.0,10.0,73,0.00,,,0.00,33.0,meteohub,2013-10-12 16:02:00,
2013-10-12 11:07:00,49.8,41.9,29.92,WSW,248,5.0,11.0,74,0.00,,,0.00,39.0,meteohub,2013-10-12 16:07:00,
2013-10-12 11:12:00,49.6,41.7,29.92,West,272,5.0,13.0,74,0.00,,,0.00,40.0,meteohub,2013-10-12 16:12:00,
2013-10-12 11:17:00,49.6,42.1,29.93,West,274,8.0,13.0,75,0.00,,,0.00,42.0,meteohub,2013-10-12 16:17:00,
2013-10-12 11:22:00,49.5,41.9,29.93,West,259,5.0,13.0,75,0.00,,,0.00,53.0,meteohub,2013-10-12 16:22:00,
2013-10-12 11:27:00,49.3,42.4,29.93,WSW,250,7.0,10.0,77,0.00,,,0.00,60.0,meteohub,2013-10-12 16:27:00,
2013-10-12 11:32:00,48.9,42.1,29.93,WSW,252,7.0,14.0,77,0.00,,,0.00,65.0,meteohub,2013-10-12 16:32:00,
2013-10-12 11:37:00,48.7,41.9,29.94,West,261,7.0,14.0,77,0.00,,,0.00,72.0,meteohub,2013-10-12 16:37:00,
2013-10-12 11:42:00,48.6,42.3,29.95,WSW,242,6.0,13.0,79,0.00,,,0.00,76.0,meteohub,2013-10-12 16:42:00,
2013-10-12 11:47:00,48.4,42.3,29.95,West,269,5.0,13.0,79,0.00,,,0.00,86.0,meteohub,2013-10-12 16:47:00,
2013-10-12 11:52:00,48.0,41.9,29.96,West,262,8.0,12.0,79,0.00,,,0.00,86.0,meteohub,2013-10-12 16:52:00,
2013-10-12 11:57:00,47.8,41.9,29.96,SW,229,4.0,12.0,80,0.00,,,0.00,81.0,meteohub,2013-10-12 16:57:00,
2013-10-12 12:02:00,47.7,42.4,29.96,WSW,244,5.0,12.0,82,0.00,,,0.00,84.0,meteohub,2013-10-12 17:02:00,
2013-10-12 12:07:00,47.7,42.4,29.96,West,271,6.0,12.0,82,0.00,,,0.00,91.0,meteohub,2013-10-12 17:07:00,
2013-10-12 12:12:00,47.5,42.6,29.97,West,263,5.0,10.0,83,0.00,,,0.00,104.0,meteohub,2013-10-12 17:12:00,
2013-10-12 12:17:00,47.5,43.2,29.96,WSW,257,4.0,9.0,85,0.00,,,0.00,118.0,meteohub,2013-10-12 17:17:00,
2013-10-12 12:22:00,47.7,43.0,29.97,WSW,253,6.0,9.0,84,0.01,,,0.01,109.0,meteohub,2013-10-12 17:22:00,
2013-10-12 12:27:00,47.8,43.9,29.97,West,267,4.0,7.0,86,0.01,,,0.01,153.0,meteohub,2013-10-12 17:27:00,
2013-10-12 12:32:00,48.0,43.2,29.97,West,261,5.0,7.0,83,0.01,,,0.01,141.0,meteohub,2013-10-12 17:32:00,
2013-10-12 12:37:00,48.4,42.8,29.97,SW,232,3.0,9.0,81,0.01,,,0.01,169.0,meteohub,2013-10-12 17:37:00,
2013-10-12 12:42:00,48.7,42.4,29.97,WSW,252,4.0,9.0,79,0.01,,,0.01,165.0,meteohub,2013-10-12 17:42:00,
2013-10-12 12:47:00,49.1,42.8,29.97,West,259,5.0,9.0,79,0.01,,,0.01,146.0,meteohub,2013-10-12 17:47:00,
2013-10-12 12:52:00,49.5,43.2,29.97,West,262,5.0,9.0,79,0.01,,,0.01,139.0,meteohub,2013-10-12 17:52:00,
2013-10-12 12:57:00,49.8,42.6,29.97,WNW,286,4.0,8.0,76,0.01,,,0.01,149.0,meteohub,2013-10-12 17:57:00,
2013-10-12 13:02:00,50.2,42.3,29.97,WSW,256,6.0,8.0,74,0.01,,,0.01,125.0,meteohub,2013-10-12 18:02:00,
2013-10-12 13:07:00,50.5,42.3,29.97,West,273,7.0,8.0,73,0.01,,,0.01,127.0,meteohub,2013-10-12 18:07:00,
2013-10-12 13:12:00,50.7,42.4,29.97,WSW,254,7.0,9.0,73,0.01,,,0.01,121.0,meteohub,2013-10-12 18:12:00,
2013-10-12 13:17:00,51.1,40.5,29.97,West,261,7.0,14.0,67,0.01,,,0.01,114.0,meteohub,2013-10-12 18:17:00,
2013-10-12 13:22:00,51.3,41.9,29.97,West,265,5.0,14.0,70,0.00,,,0.01,121.0,meteohub,2013-10-12 18:22:00,
2013-10-12 13:27:00,51.4,42.4,29.97,West,261,7.0,14.0,71,0.00,,,0.01,139.0,meteohub,2013-10-12 18:27:00,
2013-10-12 13:32:00,51.6,41.4,29.97,West,267,6.0,9.0,68,0.00,,,0.01,163.0,meteohub,2013-10-12 18:32:00,
2013-10-12 13:37:00,52.2,41.5,29.98,WSW,256,6.0,9.0,67,0.00,,,0.01,176.0,meteohub,2013-10-12 18:37:00,
2013-10-12 13:42:00,52.5,42.3,29.98,West,269,5.0,10.0,68,0.00,,,0.01,213.0,meteohub,2013-10-12 18:42:00,
2013-10-12 13:47:00,53.1,42.8,29.98,West,269,7.0,10.0,68,0.00,,,0.01,221.0,meteohub,2013-10-12 18:47:00,
2013-10-12 13:52:00,53.2,41.0,29.98,WSW,249,4.0,10.0,63,0.00,,,0.01,188.0,meteohub,2013-10-12 18:52:00,
2013-10-12 13:57:00,53.2,40.6,29.98,WSW,252,6.0,10.0,62,0.00,,,0.01,179.0,meteohub,2013-10-12 18:57:00,
2013-10-12 14:02:00,53.2,39.2,29.98,WNW,282,7.0,12.0,59,0.00,,,0.01,193.0,meteohub,2013-10-12 19:02:00,
2013-10-12 14:07:00,53.4,39.0,29.98,West,268,6.0,12.0,58,0.00,,,0.01,216.0,meteohub,2013-10-12 19:07:00,
2013-10-12 14:12:00,53.8,39.4,29.98,West,273,7.0,13.0,58,0.00,,,0.01,211.0,meteohub,2013-10-12 19:12:00,
2013-10-12 14:17:00,54.1,39.2,29.99,West,269,6.0,13.0,57,0.00,,,0.01,248.0,meteohub,2013-10-12 19:17:00,
2013-10-12 14:22:00,54.5,39.6,29.98,WSW,244,4.0,13.0,57,0.00,,,0.01,246.0,meteohub,2013-10-12 19:22:00,
2013-10-12 14:27:00,54.9,40.3,29.99,WSW,241,5.0,13.0,58,0.00,,,0.01,214.0,meteohub,2013-10-12 19:27:00,
2013-10-12 14:32:00,55.0,39.6,29.99,WSW,252,7.0,13.0,56,0.00,,,0.01,253.0,meteohub,2013-10-12 19:32:00,
2013-10-12 14:37:00,55.4,39.6,29.99,West,265,9.0,12.0,55,0.00,,,0.01,264.0,meteohub,2013-10-12 19:37:00,
2013-10-12 14:42:00,55.8,39.9,29.99,WSW,257,6.0,12.0,55,0.00,,,0.01,301.0,meteohub,2013-10-12 19:42:00,
2013-10-12 14:47:00,56.3,40.3,29.99,WSW,253,8.0,12.0,55,0.00,,,0.01,478.0,meteohub,2013-10-12 19:47:00,
2013-10-12 14:52:00,57.6,39.0,29.99,West,270,7.0,12.0,50,0.00,,,0.01,663.0,meteohub,2013-10-12 19:52:00,
2013-10-12 14:57:00,57.6,37.9,29.99,WSW,255,12.0,12.0,48,0.00,,,0.01,566.0,meteohub,2013-10-12 19:57:00,
2013-10-12 15:02:00,57.7,38.1,29.99,WNW,292,4.0,13.0,48,0.00,,,0.01,540.0,meteohub,2013-10-12 20:02:00,
2013-10-12 15:07:00,58.3,37.6,30.00,West,275,6.0,15.0,46,0.00,,,0.01,512.0,meteohub,2013-10-12 20:07:00,
2013-10-12 15:12:00,57.9,37.2,30.00,West,259,7.0,15.0,46,0.00,,,0.01,526.0,meteohub,2013-10-12 20:12:00,
2013-10-12 15:17:00,58.1,37.9,30.00,WSW,254,13.0,18.0,47,0.00,,,0.01,497.0,meteohub,2013-10-12 20:17:00,
2013-10-12 15:22:00,58.1,38.5,30.00,WNW,298,5.0,18.0,48,0.00,,,0.01,388.0,meteohub,2013-10-12 20:22:00,
2013-10-12 15:27:00,58.5,38.8,30.01,West,275,7.0,13.0,48,0.00,,,0.01,475.0,meteohub,2013-10-12 20:27:00,
2013-10-12 15:32:00,58.3,39.7,30.01,SW,219,8.0,14.0,50,0.00,,,0.01,246.0,meteohub,2013-10-12 20:32:00,
2013-10-12 15:37:00,57.7,38.1,30.01,West,278,9.0,14.0,48,0.00,,,0.01,167.0,meteohub,2013-10-12 20:37:00,
2013-10-12 15:42:00,57.7,38.7,30.01,West,263,6.0,14.0,49,0.00,,,0.01,144.0,meteohub,2013-10-12 20:42:00,
2013-10-12 15:47:00,57.9,38.3,30.01,NW,311,2.0,13.0,48,0.00,,,0.01,118.0,meteohub,2013-10-12 20:47:00,
2013-10-12 15:52:00,57.4,37.9,30.01,West,263,5.0,12.0,48,0.00,,,0.01,107.0,meteohub,2013-10-12 20:52:00,
2013-10-12 15:57:00,56.5,38.1,30.01,West,277,4.0,10.0,50,0.00,,,0.01,69.0,meteohub,2013-10-12 20:57:00,
2013-10-12 16:02:00,55.9,38.1,30.02,WSW,246,5.0,11.0,51,0.00,,,0.01,142.0,meteohub,2013-10-12 21:02:00,
2013-10-12 16:07:00,56.7,38.3,30.02,WSW,246,3.0,11.0,50,0.00,,,0.01,162.0,meteohub,2013-10-12 21:07:00,
2013-10-12 16:12:00,57.4,37.9,30.02,West,272,5.0,11.0,48,0.00,,,0.01,58.0,meteohub,2013-10-12 21:12:00,
2013-10-12 16:17:00,57.6,37.9,30.02,WSW,252,7.0,11.0,48,0.00,,,0.01,56.0,meteohub,2013-10-12 21:17:00,
2013-10-12 16:22:00,57.6,37.4,30.02,WSW,248,6.0,11.0,47,0.00,,,0.01,79.0,meteohub,2013-10-12 21:22:00,
2013-10-12 16:27:00,57.9,36.1,30.02,West,260,7.0,12.0,44,0.00,,,0.01,51.0,meteohub,2013-10-12 21:27:00,
2013-10-12 16:32:00,57.9,36.7,30.03,West,270,5.0,12.0,45,0.00,,,0.01,42.0,meteohub,2013-10-12 21:32:00,
2013-10-12 16:37:00,57.9,37.8,30.03,WSW,254,6.0,12.0,47,0.00,,,0.01,39.0,meteohub,2013-10-12 21:37:00,
2013-10-12 16:42:00,57.7,38.7,30.03,WSW,245,4.0,12.0,49,0.00,,,0.01,42.0,meteohub,2013-10-12 21:42:00,
2013-10-12 16:47:00,57.6,36.9,30.04,West,267,6.0,10.0,46,0.00,,,0.01,40.0,meteohub,2013-10-12 21:47:00,
2013-10-12 16:52:00,57.6,37.9,30.04,West,259,7.0,10.0,48,0.00,,,0.01,39.0,meteohub,2013-10-12 21:52:00,
2013-10-12 16:57:00,57.4,37.9,30.04,West,261,5.0,11.0,48,0.00,,,0.01,30.0,meteohub,2013-10-12 21:57:00,
2013-10-12 17:02:00,56.7,37.8,30.04,West,263,5.0,11.0,49,0.00,,,0.01,42.0,meteohub,2013-10-12 22:02:00,
2013-10-12 17:07:00,56.7,36.7,30.05,West,270,5.0,11.0,47,0.00,,,0.01,37.0,meteohub,2013-10-12 22:07:00,
2013-10-12 17:12:00,56.5,37.0,30.05,West,265,5.0,10.0,48,0.00,,,0.01,91.0,meteohub,2013-10-12 22:12:00,
2013-10-12 17:17:00,56.7,36.7,30.05,WSW,254,5.0,10.0,47,0.00,,,0.01,84.0,meteohub,2013-10-12 22:17:00,
2013-10-12 17:22:00,56.7,37.2,30.05,West,279,5.0,9.0,48,0.00,,,0.01,39.0,meteohub,2013-10-12 22:22:00,
2013-10-12 17:27:00,56.8,37.9,30.05,West,268,6.0,9.0,49,0.00,,,0.01,37.0,meteohub,2013-10-12 22:27:00,
2013-10-12 17:32:00,56.8,36.9,30.05,WSW,252,6.0,10.0,47,0.00,,,0.01,47.0,meteohub,2013-10-12 22:32:00,
2013-10-12 17:37:00,56.7,37.2,30.06,WSW,255,7.0,10.0,48,0.00,,,0.01,26.0,meteohub,2013-10-12 22:37:00,
2013-10-12 17:42:00,56.7,37.2,30.06,West,267,7.0,10.0,48,0.00,,,0.01,33.0,meteohub,2013-10-12 22:42:00,
2013-10-12 17:47:00,56.5,37.0,30.06,West,263,5.0,11.0,48,0.00,,,0.01,26.0,meteohub,2013-10-12 22:47:00,
2013-10-12 17:52:00,56.3,37.4,30.06,West,266,9.0,11.0,49,0.00,,,0.01,23.0,meteohub,2013-10-12 22:52:00,
2013-10-12 17:57:00,56.1,37.8,30.06,West,267,3.0,10.0,50,0.00,,,0.01,21.0,meteohub,2013-10-12 22:57:00,
2013-10-12 18:02:00,55.8,37.4,30.07,WSW,255,7.0,10.0,50,0.00,,,0.01,19.0,meteohub,2013-10-12 23:02:00,
2013-10-12 18:07:00,55.8,36.9,30.07,West,262,4.0,10.0,49,0.00,,,0.01,18.0,meteohub,2013-10-12 23:07:00,
2013-10-12 18:12:00,55.6,37.2,30.07,SW,233,5.0,9.0,50,0.00,,,0.01,18.0,meteohub,2013-10-12 23:12:00,
2013-10-12 18:17:00,55.6,37.8,30.08,West,269,4.0,9.0,51,0.00,,,0.01,14.0,meteohub,2013-10-12 23:17:00,
2013-10-12 18:22:00,55.0,37.2,30.08,West,261,6.0,9.0,51,0.00,,,0.01,12.0,meteohub,2013-10-12 23:22:00,
2013-10-12 18:27:00,54.7,36.9,30.09,West,275,4.0,8.0,51,0.00,,,0.01,11.0,meteohub,2013-10-12 23:27:00,
2013-10-12 18:32:00,54.5,37.2,30.09,WSW,253,7.0,8.0,52,0.00,,,0.01,9.0,meteohub,2013-10-12 23:32:00,
2013-10-12 18:37:00,54.1,36.9,30.09,West,264,3.0,8.0,52,0.00,,,0.01,5.0,meteohub,2013-10-12 23:37:00,
2013-10-12 18:42:00,54.0,36.7,30.09,West,271,4.0,8.0,52,0.00,,,0.01,0.0,meteohub,2013-10-12 23:42:00,
2013-10-12 18:47:00,53.4,36.7,30.09,West,270,3.0,8.0,53,0.00,,,0.01,0.0,meteohub,2013-10-12 23:47:00,
2013-10-12 18:52:00,53.1,36.3,30.10,West,265,4.0,7.0,53,0.00,,,0.01,0.0,meteohub,2013-10-12 23:52:00,
2013-10-12 18:57:00,52.5,36.3,30.10,WSW,255,2.0,5.0,54,0.00,,,0.01,0.0,meteohub,2013-10-12 23:57:00,
2013-10-12 19:02:00,52.2,36.5,30.10,West,262,1.0,4.0,55,0.00,,,0.01,0.0,meteohub,2013-10-13 00:02:00,
2013-10-12 19:07:00,51.6,36.5,30.11,West,260,1.0,4.0,56,0.00,,,0.01,0.0,meteohub,2013-10-13 00:07:00,
2013-10-12 19:12:00,51.3,36.5,30.11,West,260,0.0,4.0,57,0.00,,,0.01,0.0,meteohub,2013-10-13 00:12:00,
2013-10-12 19:17:00,50.7,36.9,30.11,West,260,0.0,3.0,59,0.00,,,0.01,0.0,meteohub,2013-10-13 00:17:00,
2013-10-12 19:22:00,50.4,36.5,30.12,West,260,2.0,3.0,59,0.00,,,0.01,0.0,meteohub,2013-10-13 00:22:00,
2013-10-12 19:26:00,50.4,36.5,30.12,West,260,0.0,3.0,59,0.00,,,0.01,0.0,meteohub,2013-10-13 00:26:00,
2013-10-12 19:32:00,50.2,37.2,30.12,West,260,2.0,3.0,61,0.00,,,0.01,0.0,meteohub,2013-10-13 00:32:00,
2013-10-12 19:37:00,50.0,37.0,30.12,West,260,2.0,4.0,61,0.00,,,0.01,0.0,meteohub,2013-10-13 00:37:00,
2013-10-12 19:42:00,49.6,36.7,30.13,West,260,1.0,4.0,61,0.00,,,0.01,0.0,meteohub,2013-10-13 00:42:00,
2013-10-12 19:47:00,49.5,37.4,30.13,West,260,1.0,3.0,63,0.00,,,0.01,0.0,meteohub,2013-10-13 00:47:00,
2013-10-12 19:52:00,49.5,36.5,30.14,West,260,1.0,3.0,61,0.00,,,0.01,0.0,meteohub,2013-10-13 00:52:00,
2013-10-12 19:57:00,49.5,37.4,30.14,West,260,1.0,3.0,63,0.00,,,0.01,0.0,meteohub,2013-10-13 00:57:00,
2013-10-12 20:02:00,49.1,37.0,30.14,West,260,1.0,3.0,63,0.00,,,0.01,0.0,meteohub,2013-10-13 01:02:00,
2013-10-12 20:07:00,49.1,37.0,30.14,West,260,1.0,3.0,63,0.00,,,0.01,0.0,meteohub,2013-10-13 01:07:00,
2013-10-12 20:12:00,48.9,37.2,30.14,West,260,2.0,2.0,64,0.00,,,0.01,0.0,meteohub,2013-10-13 01:12:00,
2013-10-12 20:17:00,48.7,37.0,30.15,West,260,2.0,3.0,64,0.00,,,0.01,0.0,meteohub,2013-10-13 01:17:00,
2013-10-12 20:22:00,48.6,36.9,30.15,West,260,2.0,3.0,64,0.00,,,0.01,0.0,meteohub,2013-10-13 01:22:00,
2013-10-12 20:27:00,48.4,37.2,30.15,West,260,0.0,3.0,65,0.00,,,0.01,0.0,meteohub,2013-10-13 01:27:00,
2013-10-12 20:32:00,48.0,36.5,30.15,West,260,0.0,3.0,64,0.00,,,0.01,0.0,meteohub,2013-10-13 01:32:00,
2013-10-12 20:37:00,47.8,37.0,30.15,West,260,3.0,3.0,66,0.00,,,0.01,0.0,meteohub,2013-10-13 01:37:00,
2013-10-12 20:42:00,47.7,36.9,30.16,West,260,1.0,3.0,66,0.00,,,0.01,0.0,meteohub,2013-10-13 01:42:00,
2013-10-12 20:47:00,47.5,37.0,30.16,West,260,2.0,3.0,67,0.00,,,0.01,0.0,meteohub,2013-10-13 01:47:00,
2013-10-12 20:52:00,47.3,36.9,30.16,West,260,1.0,3.0,67,0.00,,,0.01,0.0,meteohub,2013-10-13 01:52:00,
2013-10-12 20:57:00,47.1,36.7,30.17,West,269,2.0,3.0,67,0.00,,,0.01,0.0,meteohub,2013-10-13 01:57:00,
2013-10-12 20:58:00,47.1,36.7,30.17,West,269,2.0,3.0,67,0.00,,,0.01,0.0,meteohub,2013-10-13 01:58:00,
2013-10-12 21:03:00,47.1,36.3,30.17,West,269,2.0,3.0,66,0.00,,,0.01,0.0,meteohub,2013-10-13 02:03:00,
2013-10-12 21:08:00,47.1,36.7,30.17,West,269,0.0,3.0,67,0.00,,,0.01,0.0,meteohub,2013-10-13 02:08:00,
2013-10-12 21:13:00,47.1,36.3,30.18,West,269,2.0,3.0,66,0.00,,,0.01,0.0,meteohub,2013-10-13 02:13:00,
2013-10-12 21:18:00,46.9,36.1,30.18,West,269,1.0,3.0,66,0.00,,,0.01,0.0,meteohub,2013-10-13 02:18:00,
2013-10-12 21:23:00,46.9,36.5,30.18,West,269,1.0,3.0,67,0.00,,,0.01,0.0,meteohub,2013-10-13 02:23:00,
2013-10-12 21:28:00,46.9,36.1,30.18,West,269,2.0,3.0,66,0.00,,,0.01,0.0,meteohub,2013-10-13 02:28:00,
2013-10-12 21:33:00,46.8,36.0,30.19,West,269,0.0,2.0,66,0.00,,,0.01,0.0,meteohub,2013-10-13 02:33:00,
2013-10-12 21:38:00,46.8,36.3,30.19,West,269,1.0,2.0,67,0.00,,,0.01,0.0,meteohub,2013-10-13 02:38:00,
2013-10-12 21:43:00,46.6,36.1,30.19,West,269,2.0,2.0,67,0.00,,,0.01,0.0,meteohub,2013-10-13 02:43:00,
2013-10-12 21:48:00,46.4,36.0,30.19,West,269,2.0,3.0,67,0.00,,,0.01,0.0,meteohub,2013-10-13 02:48:00,
2013-10-12 21:53:00,46.2,36.0,30.19,West,269,0.0,3.0,67,0.00,,,0.01,0.0,meteohub,2013-10-13 02:53:00,
2013-10-12 21:58:00,46.0,36.1,30.19,West,269,0.0,3.0,68,0.00,,,0.01,0.0,meteohub,2013-10-13 02:58:00,
2013-10-12 22:03:00,46.0,36.1,30.20,West,269,0.0,3.0,68,0.00,,,0.01,0.0,meteohub,2013-10-13 03:03:00,
2013-10-12 22:08:00,45.9,36.3,30.20,West,269,0.0,2.0,69,0.00,,,0.01,0.0,meteohub,2013-10-13 03:08:00,
2013-10-12 22:13:00,45.5,36.0,30.20,West,269,0.0,1.0,69,0.00,,,0.01,0.0,meteohub,2013-10-13 03:13:00,
2013-10-12 22:18:00,45.3,35.4,30.21,West,269,0.0,1.0,68,0.00,,,0.01,0.0,meteohub,2013-10-13 03:18:00,
2013-10-12 22:23:00,45.1,36.0,30.21,West,269,0.0,1.0,70,0.00,,,0.01,0.0,meteohub,2013-10-13 03:23:00,
2013-10-12 22:28:00,45.0,35.8,30.21,West,269,0.0,0.0,70,0.00,,,0.01,0.0,meteohub,2013-10-13 03:28:00,
2013-10-12 22:33:00,44.8,36.0,30.21,West,269,0.0,0.0,71,0.00,,,0.01,0.0,meteohub,2013-10-13 03:33:00,
2013-10-12 22:38:00,44.4,35.6,30.22,West,269,0.0,0.0,71,0.00,,,0.01,0.0,meteohub,2013-10-13 03:38:00,
2013-10-12 22:44:00,44.2,35.4,30.22,West,269,0.0,0.0,71,0.00,,,0.01,0.0,meteohub,2013-10-13 03:44:00,
2013-10-12 22:49:00,44.1,35.6,30.22,West,269,0.0,0.0,72,0.00,,,0.01,0.0,meteohub,2013-10-13 03:49:00,
2013-10-12 22:54:00,43.7,35.2,30.22,West,269,0.0,0.0,72,0.00,,,0.01,0.0,meteohub,2013-10-13 03:54:00,
2013-10-12 22:59:00,43.5,35.4,30.23,West,269,0.0,0.0,73,0.00,,,0.01,0.0,meteohub,2013-10-13 03:59:00,
2013-10-12 23:01:00,43.3,35.2,30.23,West,269,0.0,0.0,73,0.00,,,0.01,0.0,meteohub,2013-10-13 04:01:00,
2013-10-12 23:02:00,43.3,35.2,30.23,West,269,0.0,0.0,73,0.00,,,0.01,0.0,meteohub,2013-10-13 04:02:00,
2013-10-12 23:07:00,43.2,35.4,30.23,West,269,0.0,0.0,74,0.00,,,0.01,0.0,meteohub,2013-10-13 04:07:00,
2013-10-12 23:12:00,43.0,35.2,30.24,West,269,0.0,1.0,74,0.00,,,0.01,0.0,meteohub,2013-10-13 04:12:00,
2013-10-12 23:17:00,42.8,35.1,30.23,West,269,0.0,1.0,74,0.00,,,0.01,0.0,meteohub,2013-10-13 04:17:00,
2013-10-12 23:22:00,42.6,35.2,30.24,West,269,0.0,1.0,75,0.00,,,0.01,0.0,meteohub,2013-10-13 04:22:00,
2013-10-12 23:27:00,42.4,35.1,30.24,West,269,0.0,0.0,75,0.00,,,0.01,0.0,meteohub,2013-10-13 04:27:00,
2013-10-12 23:32:00,42.3,35.2,30.24,West,269,0.0,0.0,76,0.00,,,0.01,0.0,meteohub,2013-10-13 04:32:00,
2013-10-12 23:37:00,42.1,35.1,30.24,West,269,0.0,0.0,76,0.00,,,0.01,0.0,meteohub,2013-10-13 04:37:00,
2013-10-12 23:42:00,42.1,35.1,30.24,West,270,0.0,2.0,76,0.00,,,0.01,0.0,meteohub,2013-10-13 04:42:00,
2013-10-12 23:47:00,41.7,34.7,30.24,West,270,0.0,2.0,76,0.00,,,0.01,0.0,meteohub,2013-10-13 04:47:00,
2013-10-12 23:52:00,41.7,34.7,30.25,West,270,0.0,2.0,76,0.00,,,0.01,0.0,meteohub,2013-10-13 04:52:00,
2013-10-12 23:57:00,41.7,34.7,30.25,West,270,0.0,1.0,76,0.00,,,0.01,0.0,meteohub,2013-10-13 04:57:00,